Regional Weather Roundup
Issued by NWS Albany, NY

Home | Current Version | Previous Version | Graphics & Text | Print | Product List | Glossary Off
Versions: 1 2 3 4 5 6 7 8 9 10 11 12 13 14 15 16 17 18 19 20 21 22 23 24 25 26 27 28 29 30 31 32 33 34 35 36 37 38 39 40 41 42 43 44 45 46 47 48 49 50

000
ASUS41 KALY 270710
RWRALY

NEW YORK STATE HOURLY WEATHER ROUNDUP
NATIONAL WEATHER SERVICE ALBANY NY
200 AM EST FRI FEB 27 2015

NOTE: "FAIR" INDICATES FEW OR NO CLOUDS BELOW 12,000 FEET WITH NO
SIGNIFICANT WEATHER AND/OR NO OBSTRUCTIONS TO VISIBILITY.

NYZ032-033-038>043-046>054-057>066-NYZ062>081-270800-
EAST


CITY           SKY/WX    TMP DP  RH WIND       PRES   REMARKS
ALBANY         CLOUDY     9  -5  53 N7        30.23R WCI  -2
GLENS FALLS    CLOUDY     5  -5  63 CALM      30.22R
POUGHKEEPSIE   CLEAR      9   1  70 CALM      30.20R
NEWBURGH       PTCLDY    14   1  57 CALM      30.17S
MONTGOMERY     PTCLDY     4   1  88 CALM      30.17R
WHITE PLAINS   CLEAR     16   0  49 NW9       30.15R WCI   4
ISLIP          CLEAR     20  10  65 NW3       30.17R
NEW YORK CITY  MOCLDY    22   8  55 N6        30.19R WCI  14
CENTRAL PARK   CLEAR     21   5  50 CALM      30.20R
$$

NYZ005>009-017-018-044>046-055-056-270800-
CENTRAL


CITY           SKY/WX    TMP DP  RH WIND       PRES   REMARKS
FULTON         LGT SNOW   5   0  79 CALM      30.26R
SYRACUSE       CLOUDY    10   2  70 N3        30.27R
ROME           MOCLDY     2  -2  83 CALM      30.26R
ELMIRA         CLOUDY     5   0  79 CALM      30.22R
BINGHAMTON     CLOUDY     4   0  83 NW5       30.12R WCI  -5
MONTICELLO     CLOUDY     9   5  85 NW7       30.11R WCI  -3
$$

NYZ026>034-041>043-270800-
NORTH


CITY           SKY/WX    TMP DP  RH WIND       PRES   REMARKS
WATERTOWN      PTCLDY    -2  -8  76 E3        30.26R
FORT DRUM      NOT AVBL
MASSENA        PTCLDY   -12 -19  71 CALM      30.27R
SARANAC LAKE   CLOUDY   -10 -15  78 CALM      30.08R
PLATTSBURGH    CLOUDY    -1  -8  72 W5        30.23S WCI -11
$$

NYZ001>004-010>016-019>021-270800-
WEST


CITY           SKY/WX    TMP DP  RH WIND       PRES   REMARKS
NIAGARA FALLS  CLOUDY     8  -1  66 NW7       30.30  WCI  -3
BUFFALO        FLURRIES   9   0  67 NW10      30.28R WCI  -5
DUNKIRK        LGT SNOW   6   2  83 NW3       30.31R FOG
JAMESTOWN      CLOUDY     3   0  85 NW6       30.16R WCI  -8
WELLSVILLE     PTCLDY    -1  -4  87 NW6       30.12R WCI -13
ROCHESTER      LGT SNOW   9   5  84 W6        30.27R FOG     WCI  -1
PENN YAN       CLOUDY     8   2  76 S5        30.22R WCI   0
$$

             KEY
       WCI = WIND CHILL INDEX
       VSB = VISIBILITY
       HX  = HEAT INDEX
$$


USA.gov is the U.S. government's official web portal to all federal, state and local government web resources and services.